Location: İstanbul
(41.0082°N, 28.9784°E)
Time: 23:11:21
(UTC+03:00)

RS-44 - Visible Passes

Search period start: 22 April 2024 00:00
Search period end: 02 May 2024 00:00
Orbit: 1174 x 1510 km, 82.5° (Epoch: 22 April)

Date Brightness Start Highest point End Pass type
(mag) Time Alt. Az. Time Alt. Az. Time Alt. Az.
22 Apr ? 21:18:50 10° SSW 21:27:32 57° WNW 21:35:51 10° N visible
22 Apr ? 23:21:07 10° WNW 23:22:54 11° WNW 23:24:40 10° NW visible
23 Apr ? 21:43:33 10° SW 21:51:34 38° WNW 21:59:17 10° N visible
24 Apr ? 20:12:51 10° S 20:21:39 73° E 20:30:01 10° NNE visible
24 Apr ? 22:08:57 10° WSW 22:15:47 25° WNW 22:22:24 10° NNW visible
25 Apr ? 20:36:35 10° SSW 20:45:25 77° W 20:53:49 10° N visible
25 Apr ? 22:35:27 10° W 22:40:13 16° WNW 22:44:54 10° NNW visible
26 Apr ? 21:00:52 10° SSW 21:09:20 51° WNW 21:17:25 10° N visible
27 Apr ? 21:25:45 10° SW 21:33:25 34° WNW 21:40:46 10° N visible
28 Apr ? 05:26:34 10° NNE 05:30:57 16° ENE 05:35:12 10° E visible
28 Apr ? 21:51:24 10° WSW 21:57:40 22° WNW 22:03:44 10° NNW visible
29 Apr ? 20:18:30 10° SSW 20:27:12 69° W 20:35:25 10° N visible
29 Apr ? 22:18:25 10° W 22:22:09 13° WNW 22:25:50 10° NNW visible
30 Apr ? 20:42:56 10° SSW 20:51:09 45° WNW 20:58:56 10° N visible
01 May ? 04:46:49 10° NE 04:48:13 11° ENE 04:49:36 10° ENE visible
01 May ? 21:08:01 10° SW 21:15:15 30° WNW 21:22:12 10° NNW visible
